| time (UTC) | temp F | wind direction | speed MPH | gust MPH | rain 1hr in | rain 24hr in | rain mn in | humidity % | barometer mb |
| 20260507060041 | 58 | 360 | 0.0 | 0.0 | 0.00 | 0.06 | 0.00 | 86 | 1006.9 |
| 20260507054541 | 58 | 355 | 0.0 | 0.0 | 0.00 | 0.06 | 0.00 | 87 | 1007.0 |
| 20260507053039 | 58 | 307 | 0.0 | 0.0 | 0.00 | 0.06 | 0.00 | 88 | 1007.1 |
| 20260507051534 | 58 | 321 | 0.0 | 0.0 | 0.00 | 0.06 | 0.00 | 89 | 1007.0 |
| 20260507050034 | 59 | 331 | 0.0 | 0.0 | 0.00 | 0.06 | 0.00 | 91 | 1006.9 |
| 20260507044530 | 59 | 317 | 0.0 | 0.0 | 0.00 | 0.06 | 0.00 | 93 | 1006.9 |
| 20260507043029 | 59 | 319 | 0.0 | 0.0 | 0.00 | 0.06 | 0.00 | 93 | 1006.7 |
| 20260507041526 | 59 | 355 | 0.0 | 0.0 | 0.00 | 0.06 | 0.00 | 93 | 1006.8 |
| 20260507040024 | 59 | 306 | 0.0 | 0.0 | 0.00 | 0.06 | 0.06 | 93 | 1007.1 |
| 20260507034524 | 59 | 263 | 0.0 | 0.0 | 0.00 | 0.06 | 0.06 | 93 | 1007.1 |
| 20260507033026 | 59 | 288 | 0.0 | 0.0 | 0.00 | 0.06 | 0.06 | 93 | 1006.9 |
| 20260507031553 | 59 | 284 | 0.0 | 0.0 | 0.00 | 0.06 | 0.06 | 93 | 1006.7 |
| 20260507030052 | 59 | 270 | 0.0 | 0.0 | 0.00 | 0.06 | 0.06 | 93 | 1006.6 |
| 20260507024600 | 58 | 290 | 0.0 | 0.0 | 0.00 | 0.06 | 0.06 | 93 | 1006.6 |
| 20260507023050 | 58 | 250 | 0.0 | 0.0 | 0.00 | 0.06 | 0.06 | 93 | 1006.6 |
| 20260507021547 | 58 | 240 | 0.0 | 0.0 | 0.00 | 0.06 | 0.06 | 93 | 1006.6 |
| 20260507020105 | 58 | 289 | 0.0 | 0.0 | 0.00 | 0.06 | 0.06 | 93 | 1006.6 |
| 20260507014523 | 58 | 247 | 0.0 | 0.0 | 0.00 | 0.06 | 0.06 | 93 | 1006.8 |
| 20260507013035 | 58 | 246 | 0.0 | 0.0 | 0.00 | 0.06 | 0.06 | 93 | 1006.9 |
| 20260507011514 | 58 | 268 | 0.0 | 0.0 | 0.00 | 0.06 | 0.06 | 93 | 1007.0 |
| 20260507010018 | 57 | 258 | 0.0 | 0.0 | 0.00 | 0.06 | 0.06 | 93 | 1007.2 |
| 20260507004510 | 57 | 286 | 0.0 | 0.0 | 0.01 | 0.06 | 0.06 | 92 | 1007.2 |
| 20260507003009 | 57 | 233 | 0.0 | 0.0 | 0.01 | 0.06 | 0.06 | 92 | 1007.1 |
| 20260507001510 | 57 | 244 | 0.0 | 0.0 | 0.02 | 0.06 | 0.06 | 92 | 1007.0 |
| 20260507000006 | 58 | 146 | 0.0 | 0.0 | 0.02 | 0.06 | 0.06 | 92 | 1006.9 |
| 20260506234505 | 58 | 251 | 0.0 | 0.0 | 0.01 | 0.05 | 0.05 | 91 | 1006.9 |
| 20260506233007 | 58 | 301 | 0.0 | 0.0 | 0.01 | 0.05 | 0.05 | 91 | 1006.8 |
| 20260506231533 | 59 | 236 | 0.0 | 0.0 | 0.00 | 0.04 | 0.04 | 91 | 1006.8 |
| 20260506230035 | 59 | 261 | 0.0 | 0.0 | 0.01 | 0.04 | 0.04 | 91 | 1006.9 |
| 20260506224530 | 59 | 275 | 0.0 | 0.0 | 0.01 | 0.04 | 0.04 | 91 | 1006.9 |
| 20260506223029 | 59 | 271 | 0.0 | 0.0 | 0.02 | 0.04 | 0.04 | 91 | 1007.1 |
| 20260506221523 | 60 | 267 | 0.0 | 0.0 | 0.02 | 0.04 | 0.04 | 90 | 1007.3 |
| 20260506220025 | 60 | 273 | 0.0 | 0.0 | 0.02 | 0.03 | 0.03 | 89 | 1007.4 |
| 20260506214531 | 61 | 192 | 0.0 | 0.0 | 0.02 | 0.03 | 0.03 | 89 | 1007.6 |
| 20260506213020 | 61 | 279 | 0.0 | 0.0 | 0.01 | 0.02 | 0.02 | 88 | 1007.6 |
| 20260506211518 | 61 | 291 | 0.0 | 0.0 | 0.01 | 0.02 | 0.02 | 87 | 1007.7 |
| 20260506210020 | 62 | 360 | 0.0 | 0.0 | 0.01 | 0.01 | 0.01 | 86 | 1007.7 |
| 20260506204513 | 62 | 281 | 0.0 | 0.0 | 0.01 | 0.01 | 0.01 | 83 | 1007.9 |
| 20260506203013 | 63 | 271 | 0.0 | 0.0 | 0.01 | 0.01 | 0.01 | 80 | 1007.8 |
| 20260506201514 | 64 | 279 | 0.0 | 0.0 | 0.01 | 0.01 | 0.01 | 78 | 1007.7 |
| 20260506200012 | 65 | 318 | 0.0 | 0.0 | 0.00 | 0.00 | 0.00 | 75 | 1007.7 |
| 20260506194510 | 65 | 286 | 0.0 | 0.0 | 0.00 | 0.00 | 0.00 | 74 | 1007.8 |
| 20260506193007 | 66 | 261 | 0.0 | 0.0 | 0.00 | 0.00 | 0.00 | 72 | 1008.1 |
| 20260506191507 | 67 | 252 | 0.0 | 0.0 | 0.00 | 0.00 | 0.00 | 69 | 1008.0 |
| 20260506190009 | 67 | 269 | 0.0 | 0.0 | 0.00 | 0.00 | 0.00 | 66 | 1008.0 |
| 20260506184505 | 68 | 275 | 0.0 | 0.0 | 0.00 | 0.00 | 0.00 | 65 | 1008.0 |
| 20260506183047 | 69 | 232 | 0.0 | 0.0 | 0.00 | 0.00 | 0.00 | 64 | 1008.0 |
| 20260506181553 | 69 | 227 | 0.0 | 0.0 | 0.00 | 0.00 | 0.00 | 62 | 1008.2 |
| 20260506180033 | 70 | 279 | 0.0 | 0.0 | 0.00 | 0.00 | 0.00 | 61 | 1008.5 |
| 20260506174528 | 70 | 257 | 0.0 | 0.0 | 0.00 | 0.00 | 0.00 | 62 | 1008.7 |
| 20260506173025 | 70 | 273 | 0.0 | 0.0 | 0.00 | 0.00 | 0.00 | 62 | 1008.9 |
| 20260506171525 | 70 | 281 | 0.0 | 0.0 | 0.00 | 0.00 | 0.00 | 62 | 1008.7 |
| 20260506170022 | 69 | 232 | 0.0 | 0.0 | 0.00 | 0.00 | 0.00 | 63 | 1008.9 |
| 20260506164523 | 70 | 263 | 0.0 | 0.0 | 0.00 | 0.00 | 0.00 | 62 | 1009.1 |
| 20260506163019 | 70 | 275 | 0.0 | 0.0 | 0.00 | 0.00 | 0.00 | 62 | 1009.2 |
| 20260506161518 | 70 | 263 | 0.0 | 0.0 | 0.00 | 0.00 | 0.00 | 62 | 1009.4 |
| 20260506160014 | 69 | 217 | 0.0 | 0.0 | 0.00 | 0.00 | 0.00 | 63 | 1009.8 |
| 20260506154512 | 70 | 265 | 0.0 | 0.0 | 0.00 | 0.00 | 0.00 | 62 | 1010.0 |
| 20260506153019 | 70 | 243 | 0.0 | 0.0 | 0.00 | 0.00 | 0.00 | 61 | 1010.2 |
| 20260506151510 | 70 | 275 | 0.0 | 0.0 | 0.00 | 0.00 | 0.00 | 62 | 1010.1 |
| 20260506150042 | 69 | 315 | 0.0 | 0.0 | 0.00 | 0.00 | 0.00 | 64 | 1010.3 |
| 20260506144535 | 69 | 292 | 0.0 | 0.0 | 0.00 | 0.00 | 0.00 | 65 | 1010.2 |
| 20260506143033 | 69 | 243 | 0.0 | 0.0 | 0.00 | 0.00 | 0.00 | 65 | 1010.1 |
| 20260506141528 | 68 | 263 | 0.0 | 0.0 | 0.00 | 0.00 | 0.00 | 67 | 1010.0 |
| 20260506140025 | 67 | 321 | 0.0 | 0.0 | 0.00 | 0.00 | 0.00 | 71 | 1010.1 |
| 20260506134521 | 65 | 283 | 0.0 | 0.0 | 0.00 | 0.00 | 0.00 | 73 | 1010.3 |
| 20260506133015 | 65 | 281 | 0.0 | 0.0 | 0.00 | 0.00 | 0.00 | 73 | 1010.6 |
| 20260506131521 | 64 | 238 | 0.0 | 0.0 | 0.00 | 0.00 | 0.00 | 75 | 1010.5 |
| 20260506130011 | 63 | 286 | 0.0 | 0.0 | 0.00 | 0.00 | 0.00 | 77 | 1010.7 |
| 20260506124507 | 62 | 221 | 0.0 | 0.0 | 0.00 | 0.00 | 0.00 | 79 | 1010.8 |
| 20260506123005 | 61 | 315 | 0.0 | 0.0 | 0.00 | 0.00 | 0.00 | 80 | 1010.8 |
| 20260506121504 | 61 | 221 | 0.0 | 0.0 | 0.00 | 0.00 | 0.00 | 81 | 1010.7 |
| 20260506120008 | 60 | 272 | 0.0 | 0.0 | 0.00 | 0.00 | 0.00 | 82 | 1011.2 |
| 20260506114508 | 60 | 295 | 0.0 | 0.0 | 0.00 | 0.00 | 0.00 | 82 | 1011.5 |
| 20260506113100 | 60 | 227 | 0.0 | 0.0 | 0.00 | 0.00 | 0.00 | 83 | 1011.4 |
| 20260506111559 | 60 | 278 | 0.0 | 0.0 | 0.00 | 0.00 | 0.00 | 83 | 1011.2 |
| 20260506110059 | 59 | 296 | 0.0 | 0.0 | 0.00 | 0.00 | 0.00 | 83 | 1011.2 |
| 20260506104601 | 59 | 277 | 0.0 | 0.0 | 0.00 | 0.00 | 0.00 | 83 | 1011.4 |
| 20260506103057 | 59 | 258 | 0.0 | 0.0 | 0.00 | 0.00 | 0.00 | 83 | 1011.4 |
| 20260506101553 | 59 | 360 | 0.0 | 0.0 | 0.00 | 0.00 | 0.00 | 83 | 1011.1 |
| 20260506100052 | 59 | 280 | 0.0 | 0.0 | 0.00 | 0.00 | 0.00 | 82 | 1011.0 |
| 20260506094552 | 59 | 266 | 0.0 | 0.0 | 0.00 | 0.00 | 0.00 | 82 | 1010.9 |
| 20260506093049 | 60 | 282 | 0.0 | 0.0 | 0.00 | 0.00 | 0.00 | 82 | 1010.9 |
| 20260506091554 | 60 | 283 | 0.0 | 0.0 | 0.00 | 0.00 | 0.00 | 81 | 1010.8 |
| 20260506090053 | 60 | 295 | 0.0 | 0.0 | 0.00 | 0.00 | 0.00 | 80 | 1010.9 |
| 20260506084549 | 60 | 281 | 0.0 | 0.0 | 0.00 | 0.00 | 0.00 | 80 | 1010.8 |
| 20260506083042 | 61 | 285 | 0.0 | 0.0 | 0.00 | 0.00 | 0.00 | 79 | 1010.9 |
| 20260506081541 | 61 | 273 | 0.0 | 0.0 | 0.00 | 0.00 | 0.00 | 79 | 1010.8 |
| 20260506073008 | 61 | 263 | 0.0 | 0.0 | 0.00 | 0.00 | 0.00 | 77 | 1010.6 |
| 20260506071507 | 61 | 268 | 0.0 | 0.0 | 0.00 | 0.00 | 0.00 | 77 | 1010.6 |
| 20260506070106 | 61 | 247 | 0.0 | 0.0 | 0.00 | 0.00 | 0.00 | 76 | 1010.4 |
| 20260506061532 | 61 | 271 | 0.0 | 0.0 | 0.00 | 0.00 | 0.00 | 74 | 1010.3 |